Wind_Speed
9 10 12 5 4 5 7 7 2 6 3 7 6 4 11 13 14 13 14 14 14 14 17 20 20 18 18 20 20 20 19 18 18 17 16 15 15 14 14 13 11 10 12 13
10 12 4 7 5 9 9 10 8 6 8 5 11 10 10 17 14 14 14 15 15 16 16 19 21 21 20 21 21 21 20 20 20 18 16 14 16 15 14 14 14 13 14 13
15 11 9 2 11 10 12 11 12 6 8 13 14 15 10 10 16 12 14 15 15 16 16 17 21 22 22 23 23 23 22 21 21 19 17 14 12 11 11 15 15 16 16 15
10 10 3 5 10 7 13 11 4 10 12 10 3 3 9 14 14 16 13 15 15 15 15 16 19 22 23 24 24 23 23 23 22 21 19 18 17 17 20 18 17 17 18 17
5 3 6 9 4 3 11 8 8 12 13 14 14 8 7 6 10 16 16 17 14 16 16 16 21 24 25 25 26 26 26 25 24 24 21 21 20 18 17 17 16 17 19 19
5 2 4 8 4 7 11 13 14 14 13 12 15 13 12 10 9 16 13 6 12 11 13 15 19 23 25 26 27 28 29 28 28 27 26 21 22 21 19 19 18 18 20 20
6 8 5 5 8 9 11 14 9 9 10 11 13 13 11 16 18 14 12 13 12 9 4 13 15 18 24 26 28 29 31 31 30 30 28 28 24 23 18 18 20 20 21 22
8 8 9 5 5 10 8 10 8 7 6 6 9 5 1 19 15 13 12 10 9 11 12 11 12 19 23 25 29 31 30 33 32 32 31 30 29 26 25 21 20 22 22 22
3 4 6 1 4 6 2 7 9 9 14 9 10 7 7 14 13 7 10 7 8 9 10 12 12 12 17 22 30 32 32 34 35 35 33 32 32 31 28 26 28 21 23 20
5 9 7 7 5 11 10 10 8 8 8 12 9 9 9 19 15 7 5 7 9 9 9 11 12 13 15 23 22 34 36 34 35 35 35 35 33 33 30 27 25 27 22 25
8 7 6 3 11 10 7 10 10 14 11 12 10 2 13 13 10 4 5 12 12 12 12 12 14 18 20 24 33 32 35 36 35 35 34 34 35 34 32 30 28 25 27 22
5 8 10 10 9 4 11 14 15 11 11 11 12 13 14 11 4 7 9 11 14 13 13 14 15 19 22 28 30 16 28 34 34 34 33 34 33 33 33 33 31 30 28 28
8 6 8 14 12 9 10 12 14 14 14 17 13 8 6 10 7 5 9 15 15 14 14 14 15 17 21 25 29 31 18 27 32 33 33 35 36 35 35 33 33 33 32 30
4 10 11 13 17 13 10 10 11 12 12 14 16 18 16 7 14 15 16 13 15 15 15 14 14 16 20 20 25 27 27 21 25 31 33 32 35 37 36 33 32 33 33 32
6 11 12 14 15 17 17 18 17 17 18 18 21 22 21 22 21 19 13 11 12 14 16 17 14 15 22 19 22 25 28 20 21 24 31 32 32 34 33 33 34 34 34 33
9 9 9 14 15 17 18 17 19 21 21 22 24 25 21 19 15 15 14 16 18 15 16 15 16 21 23 23 20 24 26 27 20 19 21 27 27 29 30 31 31 33 32 34
9 9 10 14 13 8 11 16 15 15 16 19 21 18 16 18 18 18 19 20 21 16 16 14 16 18 24 25 23 20 25 29 26 24 17 18 25 26 30 31 31 29 32 32
7 7 9 11 11 15 7 6 9 13 15 16 19 17 15 13 16 17 18 23 17 16 14 17 20 23 25 27 27 23 22 26 26 25 22 16 15 22 25 29 30 31 31 32
7 8 8 10 11 13 13 5 7 11 17 19 21 18 16 15 18 19 21 10 12 16 20 24 23 26 27 29 27 26 21 22 26 23 27 32 22 16 24 28 26 27 29 29
7 4 8 10 11 13 11 14 9 8 17 13 15 17 19 19 16 15 17 22 21 26 25 27 25 28 28 29 28 26 24 22 24 26 24 25 29 24 36 27 22 24 27 26
7 9 11 10 11 9 10 8 7 11 12 20 20 21 22 20 18 26 25 23 25 27 28 25 28 26 27 32 25 27 25 22 24 27 26 25 28 29 30 26 27 26 26 27
8 8 8 9 12 8 10 14 11 14 18 18 21 23 26 24 26 24 22 23 22 22 23 26 24 26 28 28 23 25 25 19 16 16 17 18 22 23 23 27 24 24 25 20
7 4 7 7 12 16 10 13 15 15 16 17 23 26 24 25 23 23 20 20 19 20 20 18 21 25 26 20 18 20 26 13 11 14 5 9 12 9 10 11 14 12 8 8
7 9 6 9 13 14 13 10 9 10 17 19 20 22 21 20 22 23 20 17 12 8 11 14 16 19 21 21 17 16 17 9 3 9 12 10 11 16 16 17 13 11 6 3
7 4 6 13 10 11 12 12 11 12 12 12 15 17 19 20 20 14 11 12 16 14 15 14 16 22 23 19 13 16 13 10 10 15 11 13 13 13 13 11 9 10 8 1
5 5 8 10 14 12 13 11 7 7 6 10 11 14 18 21 17 17 11 17 17 15 16 21 24 27 29 21 16 20 15 8 13 12 12 8 11 9 13 13 13 13 10 6
Wind_Direction
208 261 231 266 67 326 323 313 80 123 158 292 5 255 176 185 203 187 187 186 192 196 181 178 188 183 182 183 184 185 185 183 185 190 194 199 204 201 206 206 202 182 198 198
236 240 317 50 313 295 287 283 271 129 161 242 286 291 185 164 202 197 190 185 194 194 187 185 187 188 189 183 186 187 188 185 189 194 200 200 204 207 210 207 195 208 204 202
250 37 53 252 267 272 266 272 300 329 329 270 243 260 188 176 179 193 198 196 194 196 193 188 187 194 195 188 190 191 192 191 194 201 199 196 209 235 217 207 202 208 207 206
235 62 302 271 260 285 277 25 334 288 278 278 196 283 213 169 185 182 204 191 197 198 196 186 194 197 202 200 194 196 195 196 199 201 197 200 204 205 207 216 208 205 205 206
78 253 237 249 302 13 284 11 292 285 278 270 259 249 281 163 205 187 196 182 195 187 198 201 192 198 207 204 202 200 198 199 202 201 211 195 214 209 208 210 203 203 198 208
81 343 313 354 330 264 310 280 263 249 253 256 247 256 254 205 176 88 82 149 162 186 197 205 208 201 204 211 207 204 196 201 202 201 210 210 203 225 211 202 200 200 209 208
185 190 114 279 265 204 246 261 261 232 215 244 237 216 230 53 85 87 84 61 39 1 324 201 203 215 206 211 214 211 195 199 205 206 206 210 214 220 234 194 214 208 208 207
218 183 189 110 328 339 311 315 301 313 286 350 87 228 282 99 98 99 89 80 46 21 23 1 338 202 213 216 218 219 204 195 204 209 210 207 210 212 220 213 213 215 217 212
283 197 137 200 298 282 82 249 4 301 271 264 273 140 151 118 103 96 93 75 41 17 13 10 355 349 331 223 218 221 218 199 201 209 208 208 207 211 213 221 215 218 222 222
43 281 160 123 269 235 267 345 267 213 274 270 252 226 223 176 135 101 65 38 15 4 360 357 345 354 334 301 261 216 220 211 206 213 209 209 208 210 216 216 219 217 220 225
319 249 141 233 217 265 188 221 226 278 293 296 278 22 55 97 101 90 12 15 351 349 350 348 340 343 334 325 308 222 214 218 207 211 214 210 210 209 211 218 218 221 221 215
45 303 270 267 106 289 278 282 284 275 239 246 269 273 130 117 117 42 6 351 343 343 344 347 342 341 343 335 324 260 213 214 211 206 215 212 212 213 212 214 217 215 219 223
12 262 277 232 218 190 253 254 254 267 276 268 282 273 101 121 206 17 360 332 327 335 341 337 348 345 344 340 332 322 258 221 213 204 209 220 216 215 218 216 215 215 215 218
316 272 270 287 326 325 290 252 268 273 275 276 257 264 283 257 333 342 332 335 319 326 333 335 338 342 337 340 334 322 308 254 223 209 211 217 223 219 218 219 214 216 216 217
260 282 294 291 293 289 284 281 278 266 267 273 283 295 304 314 316 312 321 318 310 316 324 325 336 338 334 335 335 326 317 290 257 230 213 215 221 228 224 218 216 214 215 219
249 276 287 282 276 269 271 276 274 268 271 274 277 277 283 285 303 320 322 317 312 307 313 334 335 326 325 328 332 325 316 312 304 285 237 215 218 223 231 226 220 217 216 217
256 280 279 278 290 300 282 261 265 270 268 269 272 291 334 340 335 327 322 318 309 312 303 333 326 318 323 322 321 315 315 309 301 273 281 249 219 219 229 231 227 221 220 221
247 253 278 274 282 269 312 12 297 284 290 304 313 314 330 328 318 314 309 285 307 328 338 315 311 317 311 310 312 307 300 308 299 268 259 263 261 236 236 235 230 226 225 221
266 277 273 275 266 290 310 39 9 347 312 313 297 313 326 314 305 294 278 4 333 318 307 303 309 308 308 304 301 306 294 294 290 255 239 242 235 237 246 237 239 236 230 229
257 232 269 285 301 289 299 59 36 335 294 20 341 316 308 309 292 289 317 320 313 307 306 300 307 307 308 304 297 293 289 283 286 273 238 237 235 226 244 238 236 240 243 246
226 227 260 264 272 285 47 24 327 284 333 332 322 314 308 302 297 303 297 289 294 296 297 306 299 307 306 306 302 289 286 279 284 277 256 229 220 218 223 227 232 237 237 237
278 289 276 276 269 289 350 318 319 320 309 320 315 316 307 303 300 299 300 295 282 292 305 302 301 303 307 304 310 303 290 286 283 271 243 240 226 225 224 226 237 237 232 235
255 259 332 318 321 328 327 330 334 6 332 316 313 309 300 296 289 294 291 285 310 314 297 308 312 310 305 313 304 298 295 275 257 253 237 141 134 160 201 210 215 205 189 189
228 224 263 293 288 313 305 351 342 352 331 327 330 318 307 299 296 302 298 291 293 307 344 332 328 327 317 309 307 310 300 290 184 132 136 141 129 104 115 115 116 121 108 115
300 312 290 272 268 320 312 356 4 348 343 352 341 334 356 345 324 327 20 21 26 21 10 2 360 350 332 326 329 349 323 270 227 157 160 152 138 119 100 94 84 92 89 239
254 248 280 331 330 327 322 338 27 352 2 359 348 2 6 355 24 29 23 29 20 10 16 15 11 358 334 326 9 18 28 29 273 210 125 124 127 113 117 120 97 80 78 68
Height
753 764 765 755 756 761 760 762 763 769 769 771 761 763 751 755 755 757 760 766 771 774 777 785 791 797 801 807 812 817 821 825 830 832 835 836 838 840 841 843 846 848 851 853
761 772 746 752 761 764 762 765 762 755 764 771 769 756 740 744 752 748 754 759 764 768 771 779 787 792 798 803 809 814 818 822 826 829 831 832 836 835 837 840 844 847 849 851
767 761 754 765 767 771 763 765 763 769 757 752 756 759 747 737 741 745 746 749 755 760 767 774 782 788 794 799 805 810 815 819 823 825 828 831 834 834 835 836 840 844 847 849
758 758 767 772 773 765 776 758 767 772 775 784 748 786 751 745 744 744 744 745 750 755 760 766 776 783 789 794 800 806 811 815 819 821 823 826 828 829 832 833 835 839 844 846
771 772 773 778 769 771 775 764 772 771 774 769 762 773 748 735 742 738 732 734 739 745 753 759 766 775 782 787 793 799 805 810 814 817 818 822 825 825 826 828 831 836 839 843
765 765 769 769 769 771 768 773 767 763 767 786 761 763 752 739 734 733 733 735 734 739 745 752 759 766 775 781 786 791 798 804 808 812 816 818 820 820 821 824 826 831 834 838
778 774 770 772 777 765 771 770 784 782 780 779 735 754 750 736 733 743 745 745 746 743 740 744 752 759 766 773 779 784 790 797 803 806 809 813 816 818 818 820 823 825 828 830
785 793 777 774 779 783 780 778 786 802 777 760 743 770 749 735 740 744 747 752 756 755 751 749 745 748 758 765 771 777 781 787 796 800 803 806 810 813 816 817 817 820 821 823
783 785 775 778 778 780 780 787 761 783 766 776 753 746 741 740 750 752 754 759 765 764 761 759 756 754 754 754 760 768 774 779 785 791 796 800 803 806 808 810 814 816 818 818
783 800 775 777 780 777 784 773 787 776 805 800 763 756 754 748 757 760 763 764 766 765 764 764 762 760 762 756 748 754 763 769 777 784 788 792 796 800 803 806 808 811 813 815
781 789 787 786 784 781 782 788 784 777 774 788 786 765 735 751 759 766 766 766 769 769 767 766 766 764 762 756 747 739 750 760 767 776 781 785 789 793 797 800 803 806 808 810
788 788 791 780 768 777 783 786 778 786 791 773 775 769 732 750 754 759 765 770 771 770 769 768 765 765 763 757 745 732 740 750 757 766 775 778 783 788 789 792 796 799 803 806
794 793 800 789 777 779 791 780 778 775 772 786 791 771 737 747 756 755 766 770 771 770 768 768 767 766 764 762 755 745 737 743 750 757 765 772 775 778 782 784 788 792 795 798
809 800 804 806 789 783 793 786 780 785 792 782 774 768 753 750 756 759 765 769 772 771 770 767 769 768 767 765 763 755 744 740 743 748 756 762 766 769 772 778 782 785 788 792
805 811 801 795 791 789 790 789 785 788 785 794 780 778 768 764 764 764 765 769 773 773 772 769 769 770 767 765 765 760 751 743 741 742 746 752 759 764 767 769 773 776 781 784
797 813 810 810 797 793 796 789 787 786 786 786 783 783 767 762 759 765 769 773 774 772 771 769 774 774 770 764 763 763 756 748 743 740 741 744 751 757 761 764 765 769 772 775
804 807 812 813 794 793 808 789 784 780 778 780 786 772 765 775 779 782 781 778 775 768 769 771 773 774 771 765 762 760 757 751 744 741 740 741 742 749 756 760 761 764 765 769
807 815 813 812 804 821 783 775 781 787 783 778 777 776 777 784 785 784 785 780 773 768 769 773 772 771 769 765 762 757 756 749 745 739 739 738 740 746 753 756 756 757 759 760
799 808 809 812 804 790 785 784 797 804 803 791 789 784 784 786 786 786 775 775 778 777 775 770 769 766 764 761 759 755 750 747 742 737 736 737 735 736 748 749 751 753 754 753
801 810 818 809 820 822 791 789 792 798 808 796 796 796 793 790 793 780 772 774 774 774 771 767 764 762 759 755 752 750 745 742 736 732 730 730 732 731 744 740 743 747 751 752
808 813 812 803 805 796 792 796 795 818 807 796 796 794 792 793 788 778 776 773 772 770 766 762 761 757 757 750 744 741 737 733 731 727 726 729 731 735 737 736 739 740 743 746
813 810 801 794 800 810 799 799 811 801 794 796 797 796 792 788 781 775 772 768 763 761 762 762 757 755 753 748 743 737 732 729 725 722 721 722 725 729 731 733 731 735 740 736
817 805 810 813 804 796 794 796 795 801 804 801 800 799 792 786 780 774 770 766 758 761 764 760 757 754 750 746 743 737 730 725 721 720 719 720 721 722 724 727 728 732 734 737
799 796 807 809 799 795 793 792 799 805 807 806 804 800 791 787 779 772 767 762 763 762 763 762 760 757 750 745 740 735 728 723 720 717 716 719 720 722 723 724 728 731 734 737
797 798 806 803 796 795 791 793 801 806 810 810 808 803 798 793 781 774 777 775 772 771 770 768 765 760 754 746 738 731 724 719 720 718 719 719 720 720 723 726 731 734 736 744
788 793 799 799 792 795 794 796 804 808 812 813 811 809 806 803 795 790 788 782 781 779 773 770 765 761 757 748 738 730 723 718 718 717 716 719 720 723 726 732 737 739 743 743